Flag for Greenland Weather past 2 weeks in Thule Air Base, Greenland

Now
-13 °F

More clouds than sun.


Feels Like: -38 °F
Forecast: -24 / -18 °F
Wind: 18 mph from South

Location: Thule A. B.

Current Time: Feb 1, 2015 at 10:52:08 AM

Latest Report: Feb 1, 2015 at 9:58 AM


Visibility: N/A

Pressure: 30.05 "Hg

Humidity: 63%

Dew point: -22 °F

Location of Thule Air BaseLocation

Historic Weather in Thule Air Base — Graph

°F

Thule Air Base temperature yesterday

Maximum temperature yesterday: -22 °F (at 2:58 AM)
Minimum temperature yesterday: -27 °F (at 8:58 AM)
Average temperature yesterday: -25 °F

Past Weeks' High & Low Weather Summary

 TemperatureHumidityPressure
High25 °F (Jan 19, 12:58 AM)100% (Jan 26, 2:58 PM)30.26 "Hg (Jan 26, 2:58 PM)
Low-29 °F (Jan 26, 2:58 PM)51% (Jan 26, 11:58 PM)28.86 "Hg (Jan 19, 1:58 AM)
Average-15 °F72%29.66 "Hg
* Reported Jan 17 9:58 AM — Feb 1 9:58 AM, Thule Air Base, Weather by CustomWeather, © 2014

Note: Actual official high and low records may vary slightly from our data, if they occured in-between our weather recording intervals... More about our weather records

Advertising

Thule Air Base weather history for previous 24 hours

 ConditionsComfort  
Time TempWeatherWind HumidityBarometerVisibility
9:58 AM
Feb 1
-13 °FMore clouds than sun.18 mph63%30.05 "HgN/A
8:58 AM-15 °FPartly sunny.20 mph57%30.01 "HgN/A
7:58 AM-15 °FPassing clouds.18 mph57%29.97 "HgN/A
6:58 AM-15 °FClear.12 mph52%29.94 "HgN/A
5:58 AM-17 °FClear.No wind51%29.90 "HgN/A
4:58 AM-20 °FClear.5 mph62%29.87 "HgN/A
3:58 AM-24 °FClear.9 mph75%29.85 "HgN/A
2:58 AM-26 °FClear.5 mph82%29.82 "HgN/A
1:58 AM-24 °FSunny.5 mph75%29.79 "HgN/A
12:58 AM-26 °FClear.12 mph82%29.77 "HgN/A
11:58 PM
Jan 31
-26 °FClear.14 mph82%29.75 "HgN/A
10:58 PM-26 °FClear.10 mph82%29.75 "HgN/A
9:58 PM-26 °FClear.8 mph82%29.75 "HgN/A
8:58 PM-26 °FClear.2 mph82%29.75 "HgN/A
7:58 PM-26 °FSunny.7 mph82%29.74 "HgN/A
6:58 PM-27 °FSunny.9 mph91%29.75 "HgN/A
5:58 PM-27 °FSunny.7 mph91%29.75 "HgN/A
4:58 PM-26 °FSunny.5 mph82%29.77 "HgN/A
3:58 PM-27 °FSunny.3 mph91%29.78 "HgN/A
2:58 PM-26 °FSunny.6 mph82%29.78 "HgN/A
1:58 PM-27 °FSunny.9 mph91%29.80 "HgN/A
12:58 PM-27 °FSunny.8 mph91%29.82 "HgN/A
11:58 AM-22 °FSunny.9 mph68%29.83 "HgN/A
10:58 AM-26 °FScattered clouds.8 mph82%29.85 "HgN/A
Weather by CustomWeather, © 2014

See weather overviewHow to use our weather pages